Tracking 29892 objects as of 21-Nov-2024
HD Live streaming from Space Station
objects crossing your sky now

COSMOS 1275 DEB

Track COSMOS 1275 DEB now!
10-day predictions


NORAD ID: 14406
Int'l Code: 1981-053JE
Perigee: 827.8 km
Apogee: 856.5 km
Inclination: 82.8 °
Period: 101.6 minutes
Semi major axis: 7213 km
RCS: 0.0178 m2 (small)
Launch date: June 4, 1981
Source: Commonwealth of Independent States (former USSR) (CIS)
Launch site: PLESETSK MISSILE AND SPACE COMPLEX (PKMTR)

Note: This is SATELLITE DEBRIS
Your satellite tracking list
Your tracking list is empty




NASA's NSSDC Master Catalog

Two Line Element Set (TLE):
1 14406U 81053JB  24325.94116867  .00005458  00000-0  26965-2 0  9992
2 14406  82.8372 129.2107 0019897 130.4555  24.1675 14.17136316140807
Source of the keplerian elements: AFSPC